Regional Weather Roundup
Issued by NWS Albany, NY

Home | Current Version | Previous Version | Text Only | Print | Product List | Glossary On
Versions: 1 2 3 4 5 6 7 8 9 10 11 12 13 14 15 16 17 18 19 20 21 22 23 24 25 26 27 28 29 30 31 32 33 34 35 36 37 38 39 40 41 42 43 44 45 46 47 48 49 50
000
ASUS41 KALY 301510
RWRALY

NEW YORK STATE HOURLY WEATHER ROUNDUP
NATIONAL WEATHER SERVICE ALBANY NY
1000 AM EST FRI JAN 30 2015

NOTE: "FAIR" INDICATES FEW OR NO CLOUDS BELOW 12,000 FEET WITH NO
SIGNIFICANT WEATHER AND/OR NO OBSTRUCTIONS TO VISIBILITY.

NYZ032-033-038>043-046>054-057>066-NYZ062>081-301600-
EAST


CITY           SKY/WX    TMP DP  RH WIND       PRES   REMARKS
ALBANY         SNOW      29  26  89 W5        29.84F VSB 1/2 WCI  24
GLENS FALLS    LGT SNOW  28  24  85 SW3       29.83R VSB 1
POUGHKEEPSIE   LGT SNOW  30  25  81 SW6       29.86R WCI  24
NEWBURGH       LGT SNOW  27  27 100 W9        29.86R WCI  17
MONTGOMERY     LGT SNOW  29  26  89 SW6       29.85S FOG     WCI  23
WHITE PLAINS   LGT SNOW  29  26  89 NW12      29.83S FOG     WCI  19
ISLIP          LGT SNOW  32  29  88 NW13      29.82S FOG     WCI  22
NEW YORK CITY  CLOUDY    32  26  78 NW16      29.86F WCI  21
CENTRAL PARK   CLOUDY    32  26  78 VRB5      29.89S HAZE    WCI  27
$$

NYZ005>009-017-018-044>046-055-056-301600-
CENTRAL


CITY           SKY/WX    TMP DP  RH WIND       PRES   REMARKS
FULTON         LGT SNOW  25  19  78 NW21G26   29.99R WCI  11
SYRACUSE       SNOW      22  22 100 NW8       29.97R VSB 1/2 WCI  12
ROME           CLOUDY    24  17  74 NW15      29.95R WCI  11
ELMIRA         CLOUDY    29  20  69 NW10G17   29.95R HAZE    WCI  20
BINGHAMTON     LGT SNOW  24  21  88 NW10      29.87R VSB 3/4 WCI  14
MONTICELLO     CLOUDY    25  25 100 W8        29.82R WCI  16
$$

NYZ026>034-041>043-301600-
NORTH


CITY           SKY/WX    TMP DP  RH WIND       PRES   REMARKS
WATERTOWN      CLOUDY    19  10  68 N16       30.02R WCI   4
FORT DRUM      NOT AVBL
MASSENA        MIX PCPN  16   9  74 NW18G28   29.99R WCI   0
SARANAC LAKE   SNOW      19  15  84 NW7       29.79R VSB 1/2 WCI  10
PLATTSBURGH    LGT SNOW  27  23  85 N12       29.86R FOG     WCI  17
$$

NYZ001>004-010>016-019>021-301600-
WEST


CITY           SKY/WX    TMP DP  RH WIND       PRES   REMARKS
NIAGARA FALLS  LGT SNOW  14   9  80 NW23G31   30.13R BLWGSNOWWCI  -5
BUFFALO        LGT SNOW  16  10  77 N17G24    30.12R WCI   0
DUNKIRK        FLURRIES  16   8  71 NW14      30.18R WCI   2
JAMESTOWN      CLOUDY    16  10  79 N17G23    30.05R VSB 1/2 WCI   0
WELLSVILLE     LGT SNOW  23  17  78 NW14      29.94R WCI  11
ROCHESTER      LGT SNOW  20  15  81 NW16G25   30.06R WCI   6
PENN YAN       SNOW      26  22  84 NW12G18   29.97R VSB 1/2 WCI  16
$$

             KEY
       WCI = WIND CHILL INDEX
       VSB = VISIBILITY
       HX  = HEAT INDEX
$$


USA.gov is the U.S. government's official web portal to all federal, state and local government web resources and services.